DAL8990 KMFR-KRNO

Flight info

Callsign DAL8990
Flight time 0h 48m
Altitude 31000
Route FMG
Aircraft A320/M-FAA/L

Departure

Time 2026-04-21 22:21
Airport Rogue Valley International-Medford Airport (KMFR)

Arrival

Time 2026-04-21 23:09
Airport Reno Tahoe International Airport (KRNO)
Time Latitude Longitude Altitude Speed Heading
2026-04-21 22:10 42.36909 -122.87368 1325 ft 0 kts 248°
2026-04-21 22:13 42.36915 -122.87348 1329 ft 4 kts 251°
2026-04-21 22:13 42.36917 -122.87342 1329 ft 4 kts 252°
2026-04-21 22:13 42.36922 -122.87317 1326 ft 4 kts 256°
2026-04-21 22:13 42.36928 -122.87281 1329 ft 4 kts 262°
2026-04-21 22:14 42.36930 -122.87246 1326 ft 4 kts 271°
2026-04-21 22:14 42.36927 -122.87210 1326 ft 4 kts 291°
2026-04-21 22:14 42.36915 -122.87186 1333 ft 2 kts 338°
2026-04-21 22:14 42.36914 -122.87185 1333 ft 0 kts 339°
2026-04-21 22:16 42.36914 -122.87186 1333 ft 1 kts 339°
2026-04-21 22:16 42.36971 -122.87209 1325 ft 18 kts 342°
2026-04-21 22:17 42.37101 -122.87281 1327 ft 20 kts 337°
2026-04-21 22:17 42.37255 -122.87359 1320 ft 25 kts 340°
2026-04-21 22:17 42.37414 -122.87439 1317 ft 23 kts 338°
2026-04-21 22:17 42.37551 -122.87514 1315 ft 19 kts 338°
2026-04-21 22:18 42.37665 -122.87575 1313 ft 16 kts 338°
2026-04-21 22:18 42.37768 -122.87631 1311 ft 21 kts 338°
2026-04-21 22:18 42.37953 -122.87724 1308 ft 32 kts 340°
2026-04-21 22:18 42.38162 -122.87826 1304 ft 32 kts 339°
2026-04-21 22:19 42.38365 -122.87950 1300 ft 32 kts 337°
2026-04-21 22:19 42.38553 -122.88038 1296 ft 19 kts 349°
2026-04-21 22:19 42.38589 -122.87993 1295 ft 6 kts 60°
2026-04-21 22:19 42.38602 -122.87939 1294 ft 8 kts 73°
2026-04-21 22:20 42.38586 -122.87903 1295 ft 0 kts 150°
2026-04-21 22:20 42.38579 -122.87899 1295 ft 12 kts 154°
2026-04-21 22:20 42.38261 -122.87730 1303 ft 83 kts 159°
2026-04-21 22:20 42.37544 -122.87357 1315 ft 137 kts 159°
2026-04-21 22:21 42.36548 -122.86828 1585 ft 162 kts 158°
2026-04-21 22:21 42.35498 -122.86270 2311 ft 162 kts 158°
2026-04-21 22:21 42.34558 -122.85422 2874 ft 165 kts 140°
2026-04-21 22:21 42.33669 -122.84367 3323 ft 179 kts 139°
2026-04-21 22:22 42.32680 -122.83180 3633 ft 202 kts 139°
2026-04-21 22:22 42.31576 -122.81848 3942 ft 225 kts 138°
2026-04-21 22:22 42.30341 -122.80357 4248 ft 250 kts 137°
2026-04-21 22:22 42.29008 -122.78749 4721 ft 271 kts 138°
2026-04-21 22:23 42.27573 -122.77019 5527 ft 278 kts 139°
2026-04-21 22:23 42.26135 -122.75286 6554 ft 276 kts 139°
2026-04-21 22:23 42.24706 -122.73564 7510 ft 275 kts 139°
2026-04-21 22:23 42.23269 -122.71836 8385 ft 277 kts 140°
2026-04-21 22:24 42.21825 -122.70104 9274 ft 278 kts 140°
2026-04-21 22:24 42.20372 -122.68363 10101 ft 281 kts 140°
2026-04-21 22:24 42.18868 -122.66567 10483 ft 300 kts 140°
2026-04-21 22:24 42.17249 -122.64636 10682 ft 323 kts 140°
2026-04-21 22:25 42.15516 -122.62567 11006 ft 339 kts 140°
2026-04-21 22:25 42.13733 -122.60438 11638 ft 345 kts 140°
2026-04-21 22:25 42.11925 -122.58278 12352 ft 349 kts 140°
2026-04-21 22:25 42.10103 -122.56100 13057 ft 352 kts 140°
2026-04-21 22:26 42.08257 -122.53896 13740 ft 356 kts 141°
2026-04-21 22:26 42.06389 -122.51665 14319 ft 360 kts 141°
2026-04-21 22:26 42.04508 -122.49420 14933 ft 363 kts 141°
2026-04-21 22:26 42.02634 -122.47190 15589 ft 365 kts 141°
2026-04-21 22:27 42.00728 -122.44925 16242 ft 367 kts 141°
2026-04-21 22:27 41.98809 -122.42649 16917 ft 369 kts 142°
2026-04-21 22:27 41.96878 -122.40367 17568 ft 371 kts 142°
2026-04-21 22:27 41.94941 -122.38079 18207 ft 372 kts 142°
2026-04-21 22:28 41.92990 -122.35774 18805 ft 373 kts 142°
2026-04-21 22:28 41.91046 -122.33474 19474 ft 372 kts 142°
2026-04-21 22:28 41.89111 -122.31181 20164 ft 370 kts 143°
2026-04-21 22:28 41.87186 -122.28900 20840 ft 368 kts 143°
2026-04-21 22:29 41.85270 -122.26632 21505 ft 366 kts 143°
2026-04-21 22:29 41.83362 -122.24380 22162 ft 364 kts 143°
2026-04-21 22:29 41.81467 -122.22147 22740 ft 362 kts 143°
2026-04-21 22:29 41.79576 -122.19921 23366 ft 361 kts 143°
2026-04-21 22:30 41.77695 -122.17708 23865 ft 359 kts 143°
2026-04-21 22:30 41.75812 -122.15499 24279 ft 361 kts 143°
2026-04-21 22:30 41.73917 -122.13280 24647 ft 363 kts 143°
2026-04-21 22:30 41.72011 -122.11050 24985 ft 365 kts 143°
2026-04-21 22:31 41.70090 -122.08803 25323 ft 367 kts 143°
2026-04-21 22:31 41.68159 -122.06544 25645 ft 370 kts 143°
2026-04-21 22:31 41.66216 -122.04267 25975 ft 372 kts 143°
2026-04-21 22:31 41.64266 -122.01985 26274 ft 375 kts 142°
2026-04-21 22:32 41.62291 -121.99677 26569 ft 377 kts 142°
2026-04-21 22:32 41.60311 -121.97366 26872 ft 379 kts 142°
2026-04-21 22:32 41.58322 -121.95046 27179 ft 381 kts 142°
2026-04-21 22:32 41.56316 -121.92705 27464 ft 383 kts 142°
2026-04-21 22:33 41.54302 -121.90358 27736 ft 386 kts 142°
2026-04-21 22:33 41.52274 -121.87995 28004 ft 388 kts 142°
2026-04-21 22:33 41.50238 -121.85625 28270 ft 390 kts 142°
2026-04-21 22:33 41.48191 -121.83241 28557 ft 390 kts 142°
2026-04-21 22:34 41.46146 -121.80860 28822 ft 391 kts 142°
2026-04-21 22:34 41.44089 -121.78474 29092 ft 393 kts 142°
2026-04-21 22:34 41.42021 -121.76080 29347 ft 394 kts 142°
2026-04-21 22:34 41.39952 -121.73689 29667 ft 393 kts 142°
2026-04-21 22:35 41.37885 -121.71301 30002 ft 393 kts 142°
2026-04-21 22:35 41.35820 -121.68916 30263 ft 393 kts 142°
2026-04-21 22:35 41.33753 -121.66531 30514 ft 393 kts 142°
2026-04-21 22:35 41.31683 -121.64143 30753 ft 394 kts 142°
2026-04-21 22:36 41.27538 -121.59364 30917 ft 394 kts 142°
2026-04-21 22:36 41.23396 -121.54605 30920 ft 393 kts 142°
2026-04-21 22:37 41.19264 -121.49854 30912 ft 391 kts 142°
2026-04-21 22:37 41.15185 -121.45164 30914 ft 391 kts 142°
2026-04-21 22:38 41.11058 -121.40457 30913 ft 390 kts 143°
2026-04-21 22:38 41.06939 -121.35752 30910 ft 390 kts 142°
2026-04-21 22:39 41.02821 -121.31055 30885 ft 390 kts 143°
2026-04-21 22:39 40.98703 -121.26361 30888 ft 391 kts 143°
2026-04-21 22:40 40.94578 -121.21670 30891 ft 391 kts 143°
2026-04-21 22:40 40.90448 -121.16995 30883 ft 391 kts 143°
2026-04-21 22:41 40.86318 -121.12322 30888 ft 391 kts 143°
2026-04-21 22:41 40.82185 -121.07643 30890 ft 391 kts 143°
2026-04-21 22:42 40.78058 -121.02982 30874 ft 391 kts 143°
2026-04-21 22:42 40.73904 -120.98314 30813 ft 392 kts 143°
2026-04-21 22:43 40.71830 -120.95984 30456 ft 391 kts 143°
2026-04-21 22:43 40.69846 -120.93754 30123 ft 389 kts 143°
2026-04-21 22:43 40.67737 -120.91386 29737 ft 387 kts 143°
2026-04-21 22:43 40.65686 -120.89080 29338 ft 387 kts 143°
2026-04-21 22:44 40.63639 -120.86777 28957 ft 388 kts 143°
2026-04-21 22:44 40.61546 -120.84428 28566 ft 391 kts 143°
2026-04-21 22:44 40.59496 -120.82137 28189 ft 392 kts 143°
2026-04-21 22:44 40.57419 -120.79816 27810 ft 391 kts 143°
2026-04-21 22:45 40.55327 -120.77479 27434 ft 388 kts 143°
2026-04-21 22:45 40.53305 -120.75218 27071 ft 386 kts 143°
2026-04-21 22:45 40.51267 -120.72939 26705 ft 383 kts 143°
2026-04-21 22:45 40.49215 -120.70650 26342 ft 381 kts 143°
2026-04-21 22:46 40.47230 -120.68438 25998 ft 378 kts 143°
2026-04-21 22:46 40.45227 -120.66211 25651 ft 376 kts 143°
2026-04-21 22:46 40.43238 -120.63998 25291 ft 374 kts 143°
2026-04-21 22:46 40.41260 -120.61800 24954 ft 372 kts 143°
2026-04-21 22:47 40.39290 -120.59614 24609 ft 369 kts 143°
2026-04-21 22:47 40.37335 -120.57450 24274 ft 367 kts 143°
2026-04-21 22:47 40.35384 -120.55297 23942 ft 365 kts 143°
2026-04-21 22:47 40.33452 -120.53158 23616 ft 362 kts 143°
2026-04-21 22:48 40.31536 -120.51032 23246 ft 359 kts 143°
2026-04-21 22:48 40.29633 -120.48920 22852 ft 358 kts 143°
2026-04-21 22:48 40.27733 -120.46817 22463 ft 357 kts 144°
2026-04-21 22:48 40.25832 -120.44720 22080 ft 356 kts 144°
2026-04-21 22:49 40.23941 -120.42636 21699 ft 355 kts 144°
2026-04-21 22:49 40.22055 -120.40555 21323 ft 354 kts 144°
2026-04-21 22:49 40.20164 -120.38472 20968 ft 356 kts 144°
2026-04-21 22:49 40.18260 -120.36382 20676 ft 357 kts 144°
2026-04-21 22:50 40.16361 -120.34298 20387 ft 356 kts 144°
2026-04-21 22:50 40.14459 -120.32210 20105 ft 356 kts 144°
2026-04-21 22:50 40.12565 -120.30133 19827 ft 355 kts 145°
2026-04-21 22:50 40.10672 -120.28059 19533 ft 355 kts 145°
2026-04-21 22:51 40.08784 -120.25989 19247 ft 354 kts 145°
2026-04-21 22:51 40.06898 -120.23920 18976 ft 353 kts 146°
2026-04-21 22:51 40.05020 -120.21860 18729 ft 351 kts 146°
2026-04-21 22:51 40.03156 -120.19816 18465 ft 350 kts 146°
2026-04-21 22:52 40.01422 -120.17920 18222 ft 350 kts 146°
2026-04-21 22:52 39.99533 -120.15861 17912 ft 349 kts 146°
2026-04-21 22:52 39.97663 -120.13822 17602 ft 350 kts 146°
2026-04-21 22:52 39.95823 -120.11814 17304 ft 349 kts 146°
2026-04-21 22:53 39.93955 -120.09780 16985 ft 354 kts 146°
2026-04-21 22:53 39.92028 -120.07682 16682 ft 356 kts 146°
2026-04-21 22:53 39.90162 -120.05651 16395 ft 354 kts 145°
2026-04-21 22:53 39.88276 -120.03595 16095 ft 353 kts 145°
2026-04-21 22:54 39.87004 -120.02209 15903 ft 353 kts 145°
2026-04-21 22:54 39.85122 -120.00159 15622 ft 352 kts 145°
2026-04-21 22:54 39.83245 -119.98115 15397 ft 352 kts 145°
2026-04-21 22:54 39.80751 -119.95405 15047 ft 353 kts 145°
2026-04-21 22:55 39.78860 -119.93358 14776 ft 353 kts 145°
2026-04-21 22:55 39.76973 -119.91317 14522 ft 353 kts 145°
2026-04-21 22:55 39.75698 -119.89939 14337 ft 352 kts 146°
2026-04-21 22:55 39.73825 -119.87913 14066 ft 349 kts 146°
2026-04-21 22:56 39.71982 -119.85920 13843 ft 349 kts 146°
2026-04-21 22:56 39.70112 -119.83899 13640 ft 350 kts 146°
2026-04-21 22:56 39.68234 -119.81871 13437 ft 352 kts 146°
2026-04-21 22:56 39.66336 -119.79831 13242 ft 354 kts 145°
2026-04-21 22:57 39.64444 -119.77793 13058 ft 354 kts 145°
2026-04-21 22:57 39.62550 -119.75737 12861 ft 355 kts 144°
2026-04-21 22:57 39.60671 -119.73678 12646 ft 354 kts 145°
2026-04-21 22:57 39.58805 -119.71614 12463 ft 353 kts 144°
2026-04-21 22:58 39.56928 -119.69540 12293 ft 353 kts 144°
2026-04-21 22:58 39.55057 -119.67482 12173 ft 352 kts 144°
2026-04-21 22:58 39.53185 -119.65426 12203 ft 353 kts 144°
2026-04-21 22:58 39.51325 -119.63375 12193 ft 345 kts 145°
2026-04-21 22:59 39.49397 -119.61757 12195 ft 317 kts 163°
2026-04-21 22:59 39.47344 -119.61237 12193 ft 293 kts 181°
2026-04-21 22:59 39.45363 -119.61173 12185 ft 275 kts 184°
2026-04-21 22:59 39.43496 -119.61198 12087 ft 263 kts 185°
2026-04-21 23:00 39.41696 -119.61309 11930 ft 255 kts 187°
2026-04-21 23:00 39.39936 -119.61459 11670 ft 251 kts 187°
2026-04-21 23:00 39.38204 -119.61606 11408 ft 248 kts 188°
2026-04-21 23:00 39.36497 -119.61745 11160 ft 243 kts 187°
2026-04-21 23:01 39.34816 -119.61877 10912 ft 240 kts 187°
2026-04-21 23:01 39.33169 -119.62000 10668 ft 235 kts 188°
2026-04-21 23:01 39.31542 -119.62114 10426 ft 233 kts 187°
2026-04-21 23:01 39.29930 -119.62217 10177 ft 231 kts 188°
2026-04-21 23:02 39.28316 -119.62305 9954 ft 232 kts 187°
2026-04-21 23:02 39.26706 -119.62419 9710 ft 230 kts 192°
2026-04-21 23:02 39.25269 -119.63156 9441 ft 222 kts 222°
2026-04-21 23:02 39.24373 -119.64744 9189 ft 221 kts 244°
2026-04-21 23:03 39.23803 -119.66590 8975 ft 222 kts 248°
2026-04-21 23:03 39.23279 -119.68460 8920 ft 222 kts 248°
2026-04-21 23:03 39.22942 -119.70410 8923 ft 225 kts 263°
2026-04-21 23:03 39.23076 -119.72440 8928 ft 231 kts 281°
2026-04-21 23:04 39.23739 -119.74347 8926 ft 238 kts 300°
2026-04-21 23:04 39.24909 -119.75897 8920 ft 246 kts 320°
2026-04-21 23:04 39.26482 -119.76826 8927 ft 254 kts 342°
2026-04-21 23:04 39.28238 -119.76993 8924 ft 250 kts 355°
2026-04-21 23:05 39.29946 -119.76980 8746 ft 244 kts 355°
2026-04-21 23:05 39.31641 -119.76972 8375 ft 241 kts 355°
2026-04-21 23:05 39.33295 -119.76966 7998 ft 232 kts 355°
2026-04-21 23:05 39.34884 -119.76961 7653 ft 222 kts 356°
2026-04-21 23:06 39.36375 -119.76956 7272 ft 206 kts 355°
2026-04-21 23:06 39.37739 -119.76951 7007 ft 187 kts 355°
2026-04-21 23:06 39.38984 -119.76949 6735 ft 173 kts 354°
2026-04-21 23:06 39.40028 -119.76945 6502 ft 164 kts 354°
2026-04-21 23:07 39.41153 -119.76943 6267 ft 157 kts 351°
2026-04-21 23:07 39.42204 -119.76942 6026 ft 151 kts 354°
2026-04-21 23:07 39.43250 -119.76942 5794 ft 151 kts 355°
2026-04-21 23:07 39.44301 -119.76939 5564 ft 151 kts 357°
2026-04-21 23:08 39.45325 -119.76937 5314 ft 149 kts 359°
2026-04-21 23:08 39.46356 -119.76935 5045 ft 148 kts 354°
2026-04-21 23:08 39.47381 -119.76932 4797 ft 148 kts 353°
2026-04-21 23:08 39.48408 -119.76929 4531 ft 146 kts 352°
2026-04-21 23:09 39.49374 -119.76904 4415 ft 130 kts 341°
2026-04-21 23:09 39.50100 -119.76940 4408 ft 76 kts
2026-04-21 23:09 39.50524 -119.76936 4409 ft 54 kts 359°
2026-04-21 23:09 39.50875 -119.76933 4415 ft 47 kts 359°
2026-04-21 23:10 39.51083 -119.76959 4413 ft 19 kts 316°
2026-04-21 23:10 39.51089 -119.77110 4412 ft 16 kts 251°
2026-04-21 23:10 39.50993 -119.77170 4411 ft 17 kts 198°
2026-04-21 23:10 39.50901 -119.77260 4409 ft 17 kts 240°
2026-04-21 23:11 39.50834 -119.77374 4410 ft 15 kts 223°
2026-04-21 23:11 39.50759 -119.77392 4410 ft 4 kts 177°
2026-04-21 23:11 39.50742 -119.77393 4410 ft 0 kts 181°